Tracking 17149 objects as of 22-May-2015
HD Live streaming from Space Station

COSMOS 1018

Track COSMOS 1018 now!
10-day predictions
COSMOS 1018 is classified as:


NORAD ID: 10935
Int'l Code: 1978-056F
Perigee: 1,449.4 km
Apogee: 1,495.1 km
Inclination: 74.0 °
Period: 115.2 minutes
Semi major axis: 7843 km
RCS: 0.7262 m2 (medium)
Launch date: June 7, 1978
Source: Commonwealth of Independent States (former USSR) (CIS)
Your satellite tracking list
Your tracking list is empty





NASA's NSSDC Master Catalog

Two Line Element Set (TLE):
1 10935U 78056F   15141.86678823 -.00000016  00000-0 -23960-5 0  9998
2 10935 074.0263 303.4594 0029158 019.4318 090.3085 12.49853790686206

Source of the keplerian elements: AFSPC

N2YO: 363